Los Angeles, CA

12:31 AM PDT on March 26, 2017 (GMT -0700)
Los Angeles International

Weather History for KLAX - February, 2013

Change the Weather History Date:

Friday, February 22, 2013

  Actual Average Record
Temperature  
Mean Temperature 53 °F 57 °F  
Max Temperature 63 °F 64 °F 88 °F (2002)
Min Temperature 43 °F 51 °F 36 °F (1953)
Degree Days  
Heating Degree Days 12 8  
Month to date heating degree days 201 176  
Since 1 July heating degree days 823 880  
Cooling Degree Days 0 0  
Month to date cooling degree days 2 0  
Year to date cooling degree days 8 4  
Growing Degree Days 3 (Base 50)    
Moisture  
Dew Point 41 °F    
Average Humidity 61    
Maximum Humidity 83    
Minimum Humidity 38    
Precipitation  
Precipitation 0.00 in 0.12 in 1.53 in (2004)
Month to date precipitation 0.20 2.59  
Year to date precipitation 1.50 5.30  
Since 1 July precipitation 5.78  
Sea Level Pressure  
Sea Level Pressure 30.16 in    
Wind  
Wind Speed 7 mph (WSW)    
Max Wind Speed 14 mph    
Max Gust Speed 17 mph    
Visibility 10 miles    
Events      
T = Trace of Precipitation, MM = Missing Value Source: NWS Daily Summary

Daily Weather History Graph

Daily Weather History Graph

Search for Another Location

Airport or City:

Trip Planner

Search our weather history database for the weather conditions in past years. The results will help you decide how hot, cold, wet, or windy it might be!

Date:

Astronomy

Feb. 22, 2013 Rise Set
Actual Time 6:30 AM PST 5:44 PM PST
Civil Twilight 6:04 AM PST 6:09 PM PST
Nautical Twilight 5:35 AM PST 6:38 PM PST
Astronomical Twilight 5:06 AM PST 7:07 PM PST
Moon 3:05 PM PST (2/22) 4:12 AM PST (2/22)
Length of Visible Light 12h 04m
Length of Day
11h 14m
Waxing Gibbous, 91% of the Moon is Illuminated
Feb 22
Waxing Gibbous
Feb 25
Full
Mar 4
Last Quarter
Mar 11
New
Mar 19
First Quarter

Hourly Weather History & Observations

Time (PST) Temp. Windchill Dew Point Humidity Pressure Visibility Wind Dir Wind Speed Gust Speed Precip Events Conditions
12:53 AM 53.1 °F - 30.9 °F 43% 30.11 in 10.0 mi North 4.6 mph - N/A   Clear
1:53 AM 48.9 °F - 36.0 °F 61% 30.11 in 10.0 mi SE 5.8 mph - N/A   Clear
2:53 AM 46.9 °F - 36.0 °F 66% 30.11 in 10.0 mi East 5.8 mph - N/A   Partly Cloudy
3:53 AM 46.0 °F 43.9 °F 35.1 °F 66% 30.11 in 10.0 mi East 4.6 mph - N/A   Partly Cloudy
4:53 AM 45.0 °F 43.5 °F 34.0 °F 65% 30.13 in 10.0 mi ENE 3.5 mph - N/A   Partly Cloudy
5:53 AM 46.9 °F - 33.1 °F 59% 30.14 in 10.0 mi ENE 6.9 mph - N/A   Partly Cloudy
6:53 AM 45.0 °F 41.2 °F 33.1 °F 63% 30.16 in 10.0 mi East 6.9 mph - N/A   Scattered Clouds
7:53 AM 50.0 °F - 35.1 °F 57% 30.19 in 10.0 mi East 6.9 mph - N/A   Scattered Clouds
8:53 AM 54.0 °F - 37.9 °F 55% 30.20 in 10.0 mi East 5.8 mph - N/A   Scattered Clouds
9:53 AM 57.0 °F - 39.0 °F 51% 30.20 in 10.0 mi ESE 3.5 mph - N/A   Scattered Clouds
10:53 AM 61.0 °F - 35.1 °F 38% 30.20 in 10.0 mi Calm Calm - N/A   Partly Cloudy
11:53 AM 62.1 °F - 41.0 °F 46% 30.18 in 10.0 mi West 10.4 mph - N/A   Clear
12:53 PM 62.1 °F - 39.0 °F 43% 30.17 in 10.0 mi West 11.5 mph - N/A   Clear
1:53 PM 62.1 °F - 37.9 °F 41% 30.14 in 10.0 mi WSW 13.8 mph - N/A   Clear
2:53 PM 61.0 °F - 42.1 °F 50% 30.15 in 10.0 mi West 12.7 mph - N/A   Clear
3:53 PM 59.0 °F - 46.0 °F 62% 30.15 in 10.0 mi West 12.7 mph - N/A   Partly Cloudy
4:53 PM 57.0 °F - 46.9 °F 69% 30.15 in 10.0 mi West 10.4 mph - N/A   Partly Cloudy
5:53 PM 55.9 °F - 48.9 °F 77% 30.16 in 10.0 mi WSW 6.9 mph - N/A   Partly Cloudy
6:53 PM 55.0 °F - 48.0 °F 77% 30.17 in 10.0 mi West 5.8 mph - N/A   Partly Cloudy
7:53 PM 54.0 °F - 48.0 °F 80% 30.17 in 10.0 mi West 3.5 mph - N/A   Clear
8:53 PM 54.0 °F - 48.9 °F 83% 30.19 in 10.0 mi West 6.9 mph - N/A   Clear
9:53 PM 54.0 °F - 48.9 °F 83% 30.19 in 10.0 mi West 6.9 mph - N/A   Clear
10:53 PM 53.1 °F - 48.0 °F 83% 30.17 in 10.0 mi West 4.6 mph - N/A   Clear
11:53 PM 54.0 °F - 48.0 °F 80% 30.17 in 10.0 mi Calm Calm - N/A   Clear